| time (UTC) | temp F | wind direction | speed MPH | gust MPH | rain 1hr in | rain 24hr in | rain mn in | humidity % | barometer mb |
| 20260506140228 | 48 | 0 | 0.0 | 0.0 | 0.00 | 0.03 | 0.01 | 91 | 1008.6 |
| 20260506135027 | 48 | 0 | 0.0 | 0.0 | 0.00 | 0.03 | 0.01 | 91 | 1008.7 |
| 20260506133827 | 47 | 0 | 0.0 | 1.0 | 0.00 | 0.03 | 0.01 | 91 | 1008.8 |
| 20260506131536 | 47 | 0 | 0.0 | 0.0 | 0.00 | 0.03 | 0.01 | 91 | 1008.7 |
| 20260506130336 | 47 | 0 | 0.0 | 0.0 | 0.00 | 0.03 | 0.01 | 91 | 1008.7 |
| 20260506123936 | 47 | 0 | 0.0 | 0.0 | 0.00 | 0.03 | 0.01 | 91 | 1008.4 |
| 20260506122736 | 47 | 0 | 0.0 | 0.0 | 0.00 | 0.03 | 0.00 | 91 | 1008.0 |
| 20260506121536 | 47 | 0 | 0.0 | 0.0 | 0.00 | 0.03 | 0.00 | 91 | 1008.1 |
| 20260506120336 | 47 | 0 | 0.0 | 0.0 | 0.00 | 0.03 | 0.00 | 91 | 1007.9 |
| 20260506115136 | 47 | 0 | 0.0 | 0.0 | 0.00 | 0.03 | 0.00 | 91 | 1008.0 |
| 20260506112940 | 47 | 0 | 0.0 | 0.0 | 0.00 | 0.03 | 0.00 | 91 | 1008.0 |
| 20260506111740 | 47 | 0 | 0.0 | 0.0 | 0.00 | 0.03 | 0.00 | 91 | 1007.9 |
| 20260506110539 | 47 | 0 | 0.0 | 0.0 | 0.00 | 0.03 | 0.00 | 91 | 1007.7 |
| 20260506105339 | 47 | 0 | 0.0 | 0.0 | 0.00 | 0.03 | 0.00 | 91 | 1007.5 |
| 20260506104140 | 47 | 0 | 0.0 | 0.0 | 0.00 | 0.03 | 0.00 | 91 | 1007.0 |
| 20260506102940 | 48 | 0 | 0.0 | 0.0 | 0.00 | 0.03 | 0.00 | 91 | 1007.0 |
| 20260506101739 | 48 | 0 | 0.0 | 0.0 | 0.00 | 0.03 | 0.00 | 91 | 1007.2 |
| 20260506100540 | 48 | 0 | 0.0 | 0.0 | 0.00 | 0.04 | 0.00 | 91 | 1007.7 |
| 20260506095339 | 48 | 0 | 0.0 | 0.0 | 0.00 | 0.04 | 0.00 | 91 | 1007.5 |
| 20260506094140 | 48 | 0 | 0.0 | 0.0 | 0.00 | 0.04 | 0.00 | 91 | 1007.6 |
| 20260506092939 | 48 | 0 | 0.0 | 0.0 | 0.00 | 0.04 | 0.00 | 91 | 1007.3 |
| 20260506091739 | 48 | 0 | 0.0 | 0.0 | 0.00 | 0.05 | 0.00 | 91 | 1007.2 |
| 20260506090540 | 48 | 0 | 0.0 | 0.0 | 0.00 | 0.05 | 0.00 | 91 | 1007.9 |
| 20260506085339 | 48 | 0 | 0.0 | 0.0 | 0.00 | 0.05 | 0.00 | 91 | 1008.0 |
| 20260506084139 | 48 | 0 | 0.0 | 0.0 | 0.00 | 0.06 | 0.00 | 91 | 1007.7 |
| 20260506082939 | 48 | 0 | 0.0 | 0.0 | 0.00 | 0.06 | 0.00 | 91 | 1007.8 |
| 20260506080540 | 48 | 0 | 0.0 | 0.0 | 0.00 | 0.07 | 0.00 | 91 | 1007.8 |
| 20260506072939 | 48 | 0 | 0.0 | 0.0 | 0.00 | 0.08 | 0.00 | 91 | 1007.4 |
| 20260506071739 | 48 | 0 | 0.0 | 0.0 | 0.00 | 0.08 | 0.00 | 91 | 1007.4 |
| 20260506070540 | 48 | 0 | 0.0 | 0.0 | 0.00 | 0.09 | 0.00 | 91 | 1007.7 |
| 20260506061740 | 48 | 0 | 0.0 | 0.0 | 0.00 | 0.11 | 0.00 | 91 | 1007.6 |
| 20260506060539 | 48 | 0 | 0.0 | 0.0 | 0.00 | 0.11 | 0.00 | 91 | 1007.7 |
| 20260506050539 | 48 | 0 | 0.0 | 0.0 | 0.00 | 0.12 | 0.00 | 91 | 1008.2 |
| 20260506044140 | 49 | 0 | 0.0 | 0.0 | 0.00 | 0.14 | 0.00 | 91 | 1008.3 |
| 20260506042939 | 49 | 0 | 0.0 | 0.0 | 0.00 | 0.14 | 0.00 | 91 | 1008.5 |
| 20260506041739 | 49 | 0 | 0.0 | 0.0 | 0.00 | 0.14 | 0.00 | 91 | 1008.5 |
| 20260506040539 | 49 | 0 | 0.0 | 0.0 | 0.00 | 0.15 | 0.00 | 91 | 1008.6 |
| 20260506035339 | 49 | 0 | 0.0 | 0.0 | 0.00 | 0.15 | 0.00 | 91 | 1008.6 |
| 20260506034140 | 49 | 0 | 0.0 | 0.0 | 0.00 | 0.16 | 0.00 | 91 | 1008.6 |
| 20260506031739 | 49 | 0 | 0.0 | 0.0 | 0.00 | 0.16 | 0.15 | 92 | 1008.2 |
| 20260506024040 | 49 | 0 | 0.0 | 0.0 | 0.00 | 0.18 | 0.15 | 92 | 1008.3 |
| 20260506022840 | 49 | 0 | 0.0 | 0.0 | 0.00 | 0.18 | 0.15 | 92 | 1008.7 |
| 20260506021640 | 49 | 0 | 0.0 | 0.0 | 0.00 | 0.18 | 0.15 | 92 | 1008.6 |
| 20260506020441 | 49 | 0 | 0.0 | 0.0 | 0.00 | 0.18 | 0.15 | 92 | 1008.4 |
| 20260506015240 | 49 | 0 | 0.0 | 0.0 | 0.00 | 0.18 | 0.15 | 91 | 1008.5 |
| 20260506014040 | 49 | 0 | 0.0 | 0.0 | 0.00 | 0.18 | 0.15 | 91 | 1008.6 |
| 20260506012841 | 49 | 0 | 0.0 | 0.0 | 0.00 | 0.18 | 0.15 | 91 | 1008.2 |
| 20260506011641 | 49 | 0 | 0.0 | 0.0 | 0.00 | 0.18 | 0.14 | 92 | 1008.0 |
| 20260506010440 | 50 | 0 | 0.0 | 0.0 | 0.00 | 0.18 | 0.14 | 92 | 1007.9 |
| 20260506005240 | 50 | 0 | 0.0 | 0.0 | 0.00 | 0.18 | 0.14 | 92 | 1007.9 |
| 20260506003427 | 50 | 0 | 0.0 | 0.0 | 0.00 | 0.18 | 0.14 | 92 | 1008.4 |
| 20260506002229 | 50 | 0 | 0.0 | 0.0 | 0.00 | 0.18 | 0.14 | 92 | 1008.4 |
| 20260506001028 | 50 | 0 | 0.0 | 0.0 | 0.00 | 0.18 | 0.14 | 92 | 1008.3 |
| 20260505235827 | 50 | 0 | 0.0 | 0.0 | 0.00 | 0.18 | 0.14 | 92 | 1007.8 |
| 20260505234628 | 50 | 0 | 0.0 | 0.0 | 0.00 | 0.18 | 0.14 | 92 | 1007.8 |
| 20260505233428 | 50 | 0 | 0.0 | 0.0 | 0.00 | 0.18 | 0.14 | 92 | 1007.7 |
| 20260505232227 | 50 | 0 | 0.0 | 0.0 | 0.00 | 0.18 | 0.14 | 92 | 1007.7 |
| 20260505231027 | 50 | 0 | 0.0 | 0.0 | 0.00 | 0.18 | 0.14 | 92 | 1007.6 |
| 20260505225241 | 50 | 0 | 0.0 | 0.0 | 0.00 | 0.18 | 0.14 | 92 | 1007.4 |
| 20260505224041 | 50 | 0 | 0.0 | 0.0 | 0.00 | 0.18 | 0.14 | 92 | 1007.5 |
| 20260505222840 | 50 | 0 | 0.0 | 0.0 | 0.00 | 0.18 | 0.14 | 92 | 1007.4 |
| 20260505221640 | 50 | 0 | 0.0 | 0.0 | 0.00 | 0.18 | 0.14 | 92 | 1007.7 |
| 20260505220440 | 50 | 0 | 0.0 | 0.0 | 0.00 | 0.18 | 0.14 | 92 | 1007.7 |
| 20260505215240 | 50 | 0 | 0.0 | 0.0 | 0.00 | 0.18 | 0.14 | 91 | 1007.6 |
| 20260505214041 | 50 | 0 | 0.0 | 0.0 | 0.00 | 0.18 | 0.14 | 91 | 1007.6 |
| 20260505212841 | 50 | 0 | 0.0 | 0.0 | 0.00 | 0.18 | 0.14 | 91 | 1007.5 |
| 20260505211641 | 50 | 0 | 0.0 | 0.0 | 0.00 | 0.18 | 0.14 | 90 | 1007.6 |
| 20260505210440 | 50 | 0 | 0.0 | 1.0 | 0.00 | 0.18 | 0.14 | 90 | 1007.6 |
| 20260505204657 | 51 | 0 | 0.0 | 1.0 | 0.00 | 0.18 | 0.14 | 88 | 1007.6 |
| 20260505203456 | 52 | 0 | 0.0 | 4.0 | 0.00 | 0.18 | 0.14 | 86 | 1007.6 |
| 20260505201721 | 54 | 0 | 0.0 | 2.0 | 0.00 | 0.18 | 0.14 | 82 | 1007.2 |
| 20260505200521 | 57 | 313 | 2.0 | 4.0 | 0.00 | 0.18 | 0.14 | 78 | 1006.7 |
| 20260505195321 | 59 | 0 | 0.0 | 4.0 | 0.00 | 0.18 | 0.14 | 77 | 1006.7 |
| 20260505194121 | 59 | 0 | 0.0 | 3.0 | 0.00 | 0.18 | 0.14 | 76 | 1006.3 |
| 20260505192921 | 60 | 238 | 1.0 | 5.0 | 0.00 | 0.18 | 0.14 | 78 | 1006.3 |
| 20260505191721 | 60 | 0 | 0.0 | 3.0 | 0.00 | 0.18 | 0.14 | 78 | 1006.0 |
| 20260505185931 | 60 | 0 | 0.0 | 7.0 | 0.00 | 0.18 | 0.14 | 75 | 1005.8 |
| 20260505184730 | 60 | 228 | 1.0 | 5.0 | 0.00 | 0.18 | 0.14 | 75 | 1006.2 |
| 20260505183530 | 61 | 223 | 1.0 | 4.0 | 0.00 | 0.18 | 0.14 | 74 | 1006.1 |
| 20260505182330 | 61 | 0 | 0.0 | 3.0 | 0.00 | 0.17 | 0.14 | 74 | 1006.0 |
| 20260505180320 | 62 | 0 | 0.0 | 6.0 | 0.00 | 0.17 | 0.14 | 73 | 1006.1 |
| 20260505172250 | 61 | 259 | 2.0 | 7.0 | 0.00 | 0.17 | 0.14 | 75 | 1005.3 |
| 20260505171050 | 61 | 0 | 0.0 | 5.0 | 0.00 | 0.17 | 0.14 | 76 | 1005.1 |
| 20260505165851 | 61 | 0 | 0.0 | 6.0 | 0.00 | 0.17 | 0.14 | 79 | 1005.2 |
| 20260505164650 | 60 | 234 | 1.0 | 4.0 | 0.00 | 0.17 | 0.14 | 81 | 1005.3 |
| 20260505163450 | 59 | 259 | 1.0 | 6.0 | 0.00 | 0.17 | 0.14 | 82 | 1005.3 |
| 20260505162250 | 59 | 0 | 0.0 | 7.0 | 0.00 | 0.17 | 0.14 | 83 | 1005.4 |
| 20260505161051 | 60 | 0 | 0.0 | 4.0 | 0.00 | 0.17 | 0.14 | 82 | 1005.5 |
| 20260505152250 | 62 | 221 | 2.0 | 6.0 | 0.00 | 0.17 | 0.14 | 80 | 1004.0 |
| 20260505151050 | 62 | 153 | 1.0 | 8.0 | 0.00 | 0.17 | 0.14 | 80 | 1004.3 |